ATLAS 5 CENTAUR DEB, 47244

Orbit data source: Space-Track

ATLAS 5 CENTAUR DEB, 47244 is space debris in HEO originally from a launch on Wed, 17 Oct 2018 UTC launched from the Air Force Eastern Test Range (AFETR). Debris objects in space refer to the collection of defunct objects orbiting the Earth. Examples of debris include non-operational satellites, rocket bodies, and fragments generated from explosions, collisions, or faulty payload assembly.

Loading next visibility...
Identifier
47244, 2018-079EE
Orbit
HEO
Country
Flag of USUS
Related business
Flag of USUnited Launch Alliance/Lockheed Martin (US)
Manufacturer
ULA Decatur
Mission
Spacecraft
Bus & Motor
Unknown
Mass
Unknown
Launch date (UTC)
2018-10-17 (8 years ago)
Launch vehicle
Unknown
Launch site
Air Force Eastern Test Range (AFETR)
Object type
Payload
Rocket body
Debris
Shape & HBR
Unknown shape, 1.1 m
Radar Cross Section
RCS unknown

Expand to show TLE details & history
Last TLE update: 10 months ago

TLE from 10 months ago
0 ATLAS 5 CENTAUR DEB
1 47244U 18079EE  25182.84705924 -.00000134  00000-0  00000-0 0  9992
2 47244  13.0571  69.6404 4757785 242.4964  61.6315  1.77237774 29708
Epoch: 2025-07-01T20:19Z
TLE epoch observation values (Epoch: 2025-07-01T20:19:45.918Z)
Latitude
0.00003°
Longitude
-155.43222°
Altitude
22,241.536 km
Speed
3.746 km/s
True Right ascension
04h 38m 34s
True Declination
0° 00' 00"
Sunlit
Object was in daylight at epoch
Visualization orbit readout
Latitude
Unknown
Longitude
Unknown
Altitude
Unknown
Speed
Unknown
Apparent Right ascension
Unknown
Apparent Declination
Unknown
Sunlit
N/A
Visualization observer readout
Local Sidereal Time
23:42:49
Azimuth
Unknown
Elevation
Unknown
Doppler factor
Unknown
Orbital elements
Apogee altitude
36,189.901 km
Perigee altitude
8,742.75 km
Semi-major axis
28,844.463 km
Eccentricity
0.47578
Inclination
13.0571°
RAAN
69.6404°
Arg. of periapsis
242.4964°
True anomaly
117.42606°
Mean anomaly
61.6315°
Eccentric anomaly
88.88645°
Mean motion
0.44305 °/min
Orbital period
812.56 mins
BSTAR
0
Loading maneuver chart data...
Computing Atmospheric mass density...

Documentation

Showing up to 5 results
|